Find Starlink 34299

NORAD ID: 64383 Int'l Des: 2025-127 Owner: SPXS Country: US Constellation: starlink operational
LEOCIRCULAR

实时位置

正在加载3D地球...

关于 Starlink 34299

正在加载描述...

即将过境

Passes for default location (London). Set your location on the main map for personalized predictions.

高度历史

Loading altitude history...

两行轨道根数

1 64383U 25127P 26139.31359725 .00015423 00000-0 56867-3 0 9997
2 64383 42.9997 141.3233 0000784 268.1402 91.9360 15.27588284 53214
Epoch: May 19, 2026 • Age: 15 hours

当前状态

高度 495.5 km
速度 7.62 km/s
星下点 -42.54°S, 161.02°W
发射日期 Jun 13, 2025
运行时间 0.9 years
类型 internet

技术详情

分类 Payload
质量 575.00 kg
干质量 530.00 kg
总质量 575.00 kg
长度 0.30 m
直径 4.10 m
跨度 29.00 m
形状 Box + pan
制造商 SPXS
平台类型 Starlink V2MO
阶段状态 In Orbit
所有者/国家 SPXS/US

Most Searched